Location: Chèvreville
(49.1099°N, 2.8495°E)
Time: 10:28:06
(UTC+00:00)

SO-50 - Pass Details

Date: 13 December 2023
Orbit: 607 x 661 km, 64.6° (Epoch: 21 February)

Event Time Altitude Azimuth Distance (km) Brightness Sun altitude
Exits shadow 06:15:11 - 336° (NNW) 2,184 ? -12.2°
Reaches altitude 10° 06:15:55 10° 344° (NNW) 2,034 ? -12.1°
Maximum altitude 06:18:07 13° 13° (NNE) 1,818 ? -11.8°
Drops below altitude 10° 06:20:19 10° 42° (NE) 2,014 ? -11.4°
Sets 06:23:47 0° 70° (ENE) 2,906 ? -10.9°
